Time,TemperatureF,DewpointF,PressureIn,WindDirection,WindDirectionDegrees,WindSpeedMPH,WindSpeedGustMPH,Humidity,HourlyPrecipIn,Conditions,Clouds,dailyrainin,SoftwareType,DateUTC
2013-06-01 00:03:00,75.0,73.0,30.02,NE,49,0.0,0.0,92,0.00,,,0.61,,2013-06-01 04:03:00,
2013-06-01 00:12:00,75.0,73.0,30.02,NE,49,0.0,0.0,92,0.00,,,0.61,,2013-06-01 04:12:00,
2013-06-01 00:23:00,75.0,73.0,30.02,NE,49,0.0,0.0,92,0.00,,,0.61,,2013-06-01 04:23:00,
2013-06-01 00:33:00,74.0,72.0,30.01,NE,49,0.0,0.0,92,0.00,,,0.00,,2013-06-01 04:33:00,
2013-06-01 00:42:00,74.0,72.0,30.00,NE,49,0.0,0.0,92,0.00,,,0.00,,2013-06-01 04:42:00,
2013-06-01 00:53:00,74.0,72.0,30.00,NE,49,0.0,0.0,92,0.00,,,0.00,,2013-06-01 04:53:00,
2013-06-01 01:02:00,74.0,72.0,30.00,NE,49,0.0,1.0,92,0.00,,,0.00,,2013-06-01 05:02:00,
2013-06-01 01:12:00,74.0,72.0,30.00,NE,49,0.0,1.0,92,0.00,,,0.00,,2013-06-01 05:12:00,
2013-06-01 01:22:00,74.0,72.0,30.00,ESE,107,0.0,4.0,92,0.00,,,0.00,,2013-06-01 05:22:00,
2013-06-01 01:32:00,74.0,72.0,30.00,ESE,107,0.0,4.0,92,0.00,,,0.00,,2013-06-01 05:32:00,
2013-06-01 01:42:00,74.0,72.0,29.99,NE,38,0.0,2.0,92,0.00,,,0.00,,2013-06-01 05:42:00,
2013-06-01 01:52:00,74.0,72.0,29.99,NE,38,0.0,2.0,92,0.00,,,0.00,,2013-06-01 05:52:00,
2013-06-01 02:01:00,74.0,72.0,29.98,ENE,70,0.0,3.0,92,0.00,,,0.00,,2013-06-01 06:01:00,
2013-06-01 02:12:00,74.0,72.0,29.98,ENE,70,0.0,3.0,92,0.00,,,0.00,,2013-06-01 06:12:00,
2013-06-01 02:22:00,74.0,72.0,29.98,ENE,70,0.0,3.0,92,0.00,,,0.00,,2013-06-01 06:22:00,
2013-06-01 02:32:00,74.0,72.0,29.98,ENE,70,0.0,3.0,92,0.00,,,0.00,,2013-06-01 06:32:00,
2013-06-01 02:42:00,74.0,72.0,29.96,NE,55,0.0,1.0,92,0.00,,,0.00,,2013-06-01 06:42:00,
2013-06-01 02:52:00,74.0,72.0,29.96,NE,55,0.0,1.0,92,0.00,,,0.00,,2013-06-01 06:52:00,
2013-06-01 03:01:00,74.0,72.0,29.96,NE,55,0.0,1.0,92,0.00,,,0.00,,2013-06-01 07:01:00,
2013-06-01 03:11:00,74.0,72.0,29.96,NE,55,0.0,1.0,92,0.00,,,0.00,,2013-06-01 07:11:00,
2013-06-01 03:22:00,75.0,73.0,29.96,NE,55,1.0,2.0,92,0.00,,,0.00,,2013-06-01 07:22:00,
2013-06-01 03:32:00,74.0,72.0,29.96,NE,55,1.0,2.0,92,0.00,,,0.00,,2013-06-01 07:32:00,
2013-06-01 03:42:00,74.0,72.0,29.96,NE,40,0.0,0.0,92,0.00,,,0.00,,2013-06-01 07:42:00,
2013-06-01 03:52:00,74.0,72.0,29.96,NE,40,0.0,0.0,92,0.00,,,0.00,,2013-06-01 07:52:00,
2013-06-01 04:02:00,74.0,72.0,29.96,NE,40,0.0,0.0,92,0.00,,,0.00,,2013-06-01 08:02:00,
2013-06-01 04:11:00,74.0,72.0,29.96,NE,40,0.0,0.0,92,0.00,,,0.00,,2013-06-01 08:11:00,
2013-06-01 04:21:00,74.0,72.0,29.96,NE,40,0.0,0.0,92,0.00,,,0.00,,2013-06-01 08:21:00,
2013-06-01 04:42:00,74.0,72.0,29.95,East,82,0.0,0.0,92,0.00,,,0.00,,2013-06-01 08:42:00,
2013-06-01 04:52:00,74.0,72.0,29.95,East,82,0.0,0.0,92,0.00,,,0.00,,2013-06-01 08:52:00,
2013-06-01 05:02:00,74.0,72.0,29.95,East,82,0.0,0.0,92,0.00,,,0.00,,2013-06-01 09:02:00,
2013-06-01 05:12:00,74.0,72.0,29.95,East,82,0.0,0.0,92,0.00,,,0.00,,2013-06-01 09:12:00,
2013-06-01 05:21:00,74.0,72.0,29.95,East,82,0.0,1.0,92,0.00,,,0.00,,2013-06-01 09:21:00,
2013-06-01 05:33:00,74.0,72.0,29.95,East,82,0.0,1.0,92,0.00,,,0.00,,2013-06-01 09:33:00,
2013-06-01 05:42:00,74.0,72.0,29.95,East,82,0.0,1.0,92,0.00,,,0.00,,2013-06-01 09:42:00,
2013-06-01 05:53:00,74.0,72.0,29.95,ENE,61,0.0,0.0,92,0.00,,,0.00,,2013-06-01 09:53:00,
2013-06-01 06:02:00,74.0,72.0,29.95,ENE,61,0.0,1.0,92,0.00,,,0.00,,2013-06-01 10:02:00,
2013-06-01 06:13:00,74.0,72.0,29.95,ENE,61,0.0,1.0,92,0.00,,,0.00,,2013-06-01 10:13:00,
2013-06-01 06:22:00,74.0,72.0,29.95,ENE,61,0.0,3.0,92,0.00,,,0.00,,2013-06-01 10:22:00,
2013-06-01 06:33:00,74.0,72.0,29.95,ENE,61,0.0,1.0,92,0.00,,,0.00,,2013-06-01 10:33:00,
2013-06-01 06:42:00,74.0,72.0,29.96,ENE,61,0.0,0.0,92,0.00,,,0.00,,2013-06-01 10:42:00,
2013-06-01 06:52:00,74.0,72.0,29.96,ENE,61,0.0,0.0,92,0.00,,,0.00,,2013-06-01 10:52:00,
2013-06-01 07:03:00,74.0,72.0,29.96,NE,41,0.0,3.0,92,0.00,,,0.00,,2013-06-01 11:03:00,
2013-06-01 07:11:00,74.0,72.0,29.96,NE,41,0.0,3.0,92,0.00,,,0.00,,2013-06-01 11:11:00,
2013-06-01 07:21:00,74.0,72.0,29.96,NE,42,0.0,0.0,92,0.00,,,0.00,,2013-06-01 11:21:00,
2013-06-01 07:32:00,74.0,72.0,29.96,NE,42,0.0,0.0,92,0.00,,,0.00,,2013-06-01 11:32:00,
2013-06-01 07:42:00,74.0,72.0,29.97,NE,42,0.0,1.0,92,0.00,,,0.00,,2013-06-01 11:42:00,
2013-06-01 07:52:00,74.0,72.0,29.97,NE,42,0.0,1.0,92,0.00,,,0.00,,2013-06-01 11:52:00,
2013-06-01 08:01:00,74.0,72.0,29.98,NE,42,0.0,2.0,92,0.00,,,0.00,,2013-06-01 12:01:00,
2013-06-01 08:12:00,74.0,72.0,29.98,NE,42,0.0,2.0,92,0.00,,,0.00,,2013-06-01 12:12:00,
2013-06-01 08:22:00,75.0,73.0,29.98,NE,42,0.0,2.0,92,0.00,,,0.00,,2013-06-01 12:22:00,
2013-06-01 08:32:00,75.0,73.0,29.98,ENE,65,0.0,3.0,92,0.00,,,0.00,,2013-06-01 12:32:00,
2013-06-01 08:42:00,75.0,73.0,29.99,NE,45,0.0,1.0,92,0.00,,,0.00,,2013-06-01 12:42:00,
2013-06-01 08:52:00,75.0,73.0,29.99,NE,45,0.0,1.0,92,0.00,,,0.00,,2013-06-01 12:52:00,
2013-06-01 09:01:00,76.0,74.0,29.99,NE,37,0.0,3.0,92,0.00,,,0.00,,2013-06-01 13:01:00,
2013-06-01 09:11:00,76.0,74.0,29.99,NE,37,0.0,3.0,92,0.00,,,0.00,,2013-06-01 13:11:00,
2013-06-01 09:22:00,76.0,73.0,29.99,NE,40,0.0,0.0,91,0.00,,,0.00,,2013-06-01 13:22:00,
2013-06-01 09:32:00,76.0,73.0,29.99,ENE,66,0.0,2.0,90,0.00,,,0.00,,2013-06-01 13:32:00,
2013-06-01 09:42:00,76.0,73.0,29.99,ENE,66,0.0,2.0,90,0.00,,,0.00,,2013-06-01 13:42:00,
2013-06-01 09:52:00,76.0,73.0,29.99,ENE,66,0.0,2.0,90,0.00,,,0.00,,2013-06-01 13:52:00,
2013-06-01 10:02:00,79.0,75.0,30.00,ENE,69,0.0,4.0,88,0.00,,,0.00,,2013-06-01 14:02:00,
2013-06-01 10:11:00,79.0,75.0,30.00,ENE,69,0.0,4.0,88,0.00,,,0.00,,2013-06-01 14:11:00,
2013-06-01 10:21:00,80.0,75.0,30.00,NE,36,3.0,3.0,86,0.00,,,0.00,,2013-06-01 14:21:00,
2013-06-01 10:32:00,81.0,76.0,30.00,ENE,68,2.0,3.0,84,0.00,,,0.00,,2013-06-01 14:32:00,
2013-06-01 10:42:00,81.0,76.0,30.00,ENE,68,2.0,3.0,84,0.00,,,0.00,,2013-06-01 14:42:00,
2013-06-01 10:52:00,82.0,76.0,30.00,SE,144,0.0,4.0,82,0.00,,,0.00,,2013-06-01 14:52:00,
2013-06-01 11:02:00,83.0,77.0,30.00,NE,53,0.0,3.0,81,0.00,,,0.00,,2013-06-01 15:02:00,
2013-06-01 11:11:00,83.0,77.0,30.00,NE,53,0.0,3.0,81,0.00,,,0.00,,2013-06-01 15:11:00,
2013-06-01 11:21:00,84.0,77.0,30.00,SSE,148,0.0,3.0,79,0.00,,,0.00,,2013-06-01 15:21:00,
2013-06-01 11:33:00,84.0,77.0,30.00,SSE,148,0.0,3.0,79,0.00,,,0.00,,2013-06-01 15:33:00,
2013-06-01 11:43:00,84.0,77.0,30.00,SSE,148,0.0,3.0,79,0.00,,,0.00,,2013-06-01 15:43:00,
2013-06-01 11:54:00,84.0,76.0,30.00,ENE,69,0.0,5.0,77,0.00,,,0.00,,2013-06-01 15:54:00,
2013-06-01 12:03:00,84.0,76.0,30.00,ENE,69,0.0,5.0,77,0.00,,,0.00,,2013-06-01 16:03:00,
2013-06-01 12:12:00,84.0,76.0,30.00,ENE,69,0.0,5.0,77,0.00,,,0.00,,2013-06-01 16:12:00,
2013-06-01 12:23:00,86.0,76.0,29.99,SE,135,0.0,4.0,73,0.00,,,0.00,,2013-06-01 16:23:00,
2013-06-01 12:33:00,87.0,76.0,29.99,ESE,112,0.0,4.0,69,0.00,,,0.00,,2013-06-01 16:33:00,
2013-06-01 12:42:00,88.0,77.0,29.98,East,98,0.0,1.0,70,0.00,,,0.00,,2013-06-01 16:42:00,
2013-06-01 12:52:00,88.0,77.0,29.98,East,98,0.0,1.0,70,0.00,,,0.00,,2013-06-01 16:52:00,
2013-06-01 13:02:00,87.0,76.0,29.98,SE,126,0.0,3.0,69,0.00,,,0.00,,2013-06-01 17:02:00,
2013-06-01 13:12:00,87.0,76.0,29.98,SE,126,0.0,3.0,69,0.00,,,0.00,,2013-06-01 17:12:00,
2013-06-01 13:22:00,88.0,76.0,29.97,NNE,15,0.0,0.0,68,0.00,,,0.00,,2013-06-01 17:22:00,
2013-06-01 13:32:00,88.0,76.0,29.97,NNE,16,0.0,1.0,68,0.00,,,0.00,,2013-06-01 17:32:00,
2013-06-01 13:42:00,89.0,76.0,29.96,NE,34,1.0,1.0,65,0.00,,,0.00,,2013-06-01 17:42:00,
2013-06-01 13:52:00,89.0,76.0,29.96,NE,34,1.0,1.0,65,0.00,,,0.00,,2013-06-01 17:52:00,
2013-06-01 14:01:00,88.0,78.0,29.96,West,261,1.0,3.0,72,0.00,,,0.00,,2013-06-01 18:01:00,
2013-06-01 14:12:00,88.0,78.0,29.96,West,261,1.0,3.0,72,0.00,,,0.00,,2013-06-01 18:12:00,
2013-06-01 14:22:00,87.0,77.0,29.96,WSW,250,3.0,5.0,73,0.00,,,0.00,,2013-06-01 18:22:00,
2013-06-01 14:32:00,87.0,77.0,29.96,WSW,250,3.0,5.0,73,0.00,,,0.00,,2013-06-01 18:32:00,
2013-06-01 14:42:00,87.0,77.0,29.96,WSW,250,3.0,5.0,73,0.00,,,0.00,,2013-06-01 18:42:00,
2013-06-01 14:52:00,81.0,77.0,29.95,NNE,17,0.0,0.0,87,0.20,,,0.00,,2013-06-01 18:52:00,
2013-06-01 15:02:00,81.0,77.0,29.95,North,5,0.0,3.0,87,0.20,,,0.00,,2013-06-01 19:02:00,
2013-06-01 15:12:00,80.0,75.0,29.95,ESE,113,0.0,0.0,86,0.20,,,0.00,,2013-06-01 19:12:00,
2013-06-01 15:21:00,80.0,75.0,29.95,ESE,113,0.0,0.0,86,0.20,,,0.00,,2013-06-01 19:21:00,
2013-06-01 15:32:00,80.0,75.0,29.95,ESE,113,0.0,0.0,86,0.20,,,0.00,,2013-06-01 19:32:00,
2013-06-01 15:42:00,82.0,77.0,29.93,SE,127,0.0,3.0,85,0.20,,,0.00,,2013-06-01 19:42:00,
2013-06-01 15:52:00,82.0,77.0,29.93,SE,127,0.0,3.0,85,0.20,,,0.00,,2013-06-01 19:52:00,
2013-06-01 16:02:00,82.0,77.0,29.93,SE,127,0.0,3.0,85,0.20,,,0.00,,2013-06-01 20:02:00,
2013-06-01 16:12:00,82.0,77.0,29.93,SE,127,0.0,3.0,85,0.20,,,0.00,,2013-06-01 20:12:00,
2013-06-01 16:21:00,87.0,78.0,29.93,West,281,3.0,3.0,74,0.00,,,0.00,,2013-06-01 20:21:00,
2013-06-01 16:32:00,88.0,76.0,29.93,WNW,300,2.0,7.0,67,0.00,,,0.00,,2013-06-01 20:32:00,
2013-06-01 16:42:00,86.0,75.0,29.94,WSW,254,0.0,3.0,71,0.00,,,0.00,,2013-06-01 20:42:00,
2013-06-01 16:52:00,86.0,75.0,29.94,WSW,254,0.0,3.0,71,0.00,,,0.00,,2013-06-01 20:52:00,
2013-06-01 17:01:00,86.0,75.0,29.94,West,281,0.0,4.0,70,0.00,,,0.00,,2013-06-01 21:01:00,
2013-06-01 17:11:00,87.0,76.0,29.94,NW,306,1.0,3.0,70,0.00,,,0.00,,2013-06-01 21:11:00,
2013-06-01 17:21:00,87.0,76.0,29.94,NW,306,1.0,3.0,70,0.00,,,0.00,,2013-06-01 21:21:00,
2013-06-01 17:33:00,85.0,76.0,29.95,ENE,57,3.0,4.0,75,0.00,,,0.00,,2013-06-01 21:33:00,
2013-06-01 17:43:00,85.0,76.0,29.95,ENE,57,3.0,4.0,75,0.00,,,0.00,,2013-06-01 21:43:00,
2013-06-01 17:53:00,81.0,75.0,29.96,NE,53,1.0,3.0,82,0.00,,,0.00,,2013-06-01 21:53:00,
2013-06-01 18:03:00,80.0,74.0,29.96,ENE,65,1.0,8.0,83,0.00,,,0.00,,2013-06-01 22:03:00,
2013-06-01 18:12:00,79.0,74.0,29.96,SE,126,0.0,1.0,84,0.00,,,0.00,,2013-06-01 22:12:00,
2013-06-01 18:23:00,79.0,74.0,29.96,SE,126,0.0,1.0,84,0.00,,,0.00,,2013-06-01 22:23:00,
2013-06-01 18:33:00,80.0,75.0,29.96,SE,125,0.0,3.0,85,0.00,,,0.00,,2013-06-01 22:33:00,
2013-06-01 18:42:00,79.0,75.0,29.96,East,82,1.0,3.0,87,0.00,,,0.00,,2013-06-01 22:42:00,
2013-06-01 18:53:00,79.0,75.0,29.96,East,82,1.0,3.0,87,0.00,,,0.00,,2013-06-01 22:53:00,
2013-06-01 19:02:00,78.0,73.0,29.96,NE,44,0.0,3.0,86,0.00,,,0.00,,2013-06-01 23:02:00,
2013-06-01 19:11:00,79.0,75.0,29.97,SE,125,0.0,1.0,87,0.00,,,0.00,,2013-06-01 23:11:00,
2013-06-01 19:22:00,79.0,75.0,29.97,SE,125,0.0,1.0,87,0.00,,,0.00,,2013-06-01 23:22:00,
2013-06-01 19:32:00,79.0,75.0,29.97,SE,125,0.0,1.0,87,0.00,,,0.00,,2013-06-01 23:32:00,
2013-06-01 19:42:00,79.0,75.0,29.97,SE,125,0.0,1.0,87,0.00,,,0.00,,2013-06-01 23:42:00,
2013-06-01 19:52:00,78.0,73.0,29.98,NE,37,0.0,4.0,86,0.00,,,0.00,,2013-06-01 23:52:00,
2013-06-01 20:02:00,78.0,73.0,29.99,ESE,107,0.0,3.0,86,0.00,,,0.00,,2013-06-02 00:02:00,
2013-06-01 20:11:00,78.0,73.0,29.99,ESE,107,0.0,3.0,86,0.00,,,0.00,,2013-06-02 00:11:00,
2013-06-01 20:22:00,77.0,72.0,29.99,ESE,105,0.0,3.0,86,0.00,,,0.00,,2013-06-02 00:22:00,
2013-06-01 20:32:00,77.0,72.0,29.99,ESE,105,0.0,3.0,86,0.00,,,0.00,,2013-06-02 00:32:00,
2013-06-01 20:42:00,77.0,72.0,29.99,ESE,105,0.0,3.0,86,0.00,,,0.00,,2013-06-02 00:42:00,
2013-06-01 20:51:00,75.0,72.0,29.98,SE,134,0.0,1.0,89,0.00,,,0.00,,2013-06-02 00:51:00,
2013-06-01 21:02:00,75.0,72.0,29.98,SE,134,0.0,1.0,89,0.00,,,0.00,,2013-06-02 01:02:00,
2013-06-01 21:11:00,75.0,72.0,29.98,SE,134,0.0,1.0,89,0.00,,,0.00,,2013-06-02 01:11:00,
2013-06-01 21:12:00,74.0,71.0,29.96,WSW,241,0.0,3.0,89,0.00,,,0.00,,2013-06-02 01:12:00,
2013-06-01 21:21:00,75.0,72.0,29.96,SSW,192,0.0,0.0,89,0.00,,,0.00,,2013-06-02 01:21:00,
2013-06-01 21:32:00,74.0,71.0,29.96,WSW,241,0.0,3.0,89,0.00,,,0.00,,2013-06-02 01:32:00,
2013-06-01 21:42:00,74.0,71.0,29.96,WSW,241,0.0,3.0,89,0.00,,,0.00,,2013-06-02 01:42:00,
2013-06-01 21:52:00,74.0,71.0,29.96,WSW,241,0.0,3.0,89,0.00,,,0.00,,2013-06-02 01:52:00,
2013-06-01 22:01:00,74.0,71.0,29.96,WSW,241,0.0,3.0,89,0.00,,,0.00,,2013-06-02 02:01:00,
2013-06-01 22:22:00,74.0,71.0,29.96,WSW,241,0.0,0.0,89,0.00,,,0.00,,2013-06-02 02:22:00,
2013-06-01 22:32:00,74.0,71.0,29.96,WSW,241,0.0,0.0,89,0.00,,,0.00,,2013-06-02 02:32:00,
2013-06-01 22:42:00,74.0,71.0,29.96,WSW,241,0.0,0.0,89,0.00,,,0.00,,2013-06-02 02:42:00,
2013-06-01 22:52:00,74.0,71.0,29.97,WSW,241,0.0,0.0,90,0.00,,,0.00,,2013-06-02 02:52:00,
2013-06-01 23:02:00,74.0,71.0,29.97,WSW,241,0.0,0.0,90,0.00,,,0.00,,2013-06-02 03:02:00,
2013-06-01 23:11:00,74.0,71.0,29.97,WSW,241,0.0,0.0,90,0.00,,,0.00,,2013-06-02 03:11:00,
2013-06-01 23:21:00,74.0,71.0,29.99,WSW,241,0.0,0.0,90,0.00,,,0.00,,2013-06-02 03:21:00,
2013-06-01 23:32:00,74.0,71.0,30.00,ESE,115,1.0,2.0,90,0.00,,,0.00,,2013-06-02 03:32:00,
2013-06-01 23:33:00,74.0,71.0,30.00,WSW,241,0.0,0.0,90,0.00,,,0.00,,2013-06-02 03:33:00,
2013-06-01 23:43:00,74.0,71.0,30.00,WSW,241,0.0,0.0,90,0.00,,,0.00,,2013-06-02 03:43:00,
2013-06-01 23:53:00,74.0,71.0,30.00,ESE,115,1.0,2.0,90,0.00,,,0.00,,2013-06-02 03:53:00,